Flag for Turkey Weather past 2 weeks in Ankara, Turkey

Now
45 °F

Passing clouds.


Feels Like: 45 °F
Forecast: 42 / 70 °F
Wind: 1 mph from North

Location: Ankara / Esenboga

Current Time: Mar 27, 2015 at 1:46:01 AM

Latest Report: Mar 27, 2015 at 12:50 AM


Visibility: N/A

Pressure: 30.04 "Hg

Humidity: 71%

Dew point: 36 °F

Location of AnkaraLocation

Historic Weather in Ankara — Graph

°F

Ankara temperature yesterday

Maximum temperature yesterday: 63 °F (at 1:50 PM)
Minimum temperature yesterday: 28 °F (at 4:20 AM)
Average temperature yesterday: 46 °F

Past Weeks' High & Low Weather Summary

 TemperatureHumidityPressure
High63 °F (Mar 26, 1:50 PM)100% (Mar 13, 1:50 AM)30.27 "Hg (Mar 13, 1:50 AM)
Low28 °F (Mar 21, 12:20 AM)23% (Mar 17, 2:50 PM)29.71 "Hg (Mar 12, 12:20 PM)
Average40 °F71%30.03 "Hg
* Reported Mar 12 12:20 AM — Mar 27 12:20 AM, Ankara, Weather by CustomWeather, © 2015

Note: Actual official high and low records may vary slightly from our data, if they occured in-between our weather recording intervals... More about our weather records

Advertising

Ankara weather history for previous 24 hours

 ConditionsComfort  
Time TempWeatherWind HumidityBarometerVisibility
12:20 AM
Fri, Mar 27
45 °FPassing clouds.2 mph71%30.04 "HgN/A
11:50 PM
Thu, Mar 26
45 °FPassing clouds.3 mph71%30.07 "HgN/A
11:20 PM46 °FPassing clouds.2 mph62%30.07 "HgN/A
10:50 PM46 °FPassing clouds.5 mph66%30.07 "HgN/A
10:20 PM46 °FPassing clouds.7 mph66%30.07 "HgN/A
9:50 PM46 °FPassing clouds.5 mph66%30.09 "HgN/A
9:20 PM46 °FPassing clouds.3 mph62%30.09 "HgN/A
8:50 PM50 °FPassing clouds.3 mph50%30.09 "HgN/A
8:20 PM50 °FPassing clouds.2 mph50%30.09 "HgN/A
7:50 PM52 °FPassing clouds.3 mph47%30.09 "HgN/A
7:20 PM52 °FPassing clouds.3 mph50%30.09 "HgN/A
6:50 PM54 °FPassing clouds.6 mph44%30.09 "HgN/A
6:20 PM55 °FPassing clouds.6 mph41%30.09 "HgN/A
5:50 PM57 °FPartly sunny.6 mph39%30.09 "HgN/A
5:20 PM59 °FPartly sunny.8 mph36%30.09 "HgN/A
4:50 PM59 °FPartly sunny.9 mph34%30.09 "HgN/A
4:20 PM61 °FPartly sunny.8 mph34%30.09 "HgN/A
3:50 PM63 °FPartly sunny.6 mph30%30.09 "HgN/A
3:20 PM63 °FPartly sunny.5 mph32%30.09 "HgN/A
2:50 PM63 °FPartly sunny.7 mph30%30.12 "HgN/A
2:20 PM63 °FPartly sunny.6 mph27%30.12 "HgN/A
1:50 PM63 °FPartly sunny.3 mph37%30.12 "HgN/A
1:20 PM59 °FPartly sunny.3 mph36%30.15 "HgN/A
12:50 PM59 °FPartly sunny.5 mph39%30.15 "HgN/A
12:20 PM57 °FPartly sunny.3 mph44%30.18 "HgN/A
11:50 AM57 °FPartly sunny.2 mph39%30.18 "HgN/A
11:20 AM55 °FPartly sunny.5 mph44%30.21 "HgN/A
10:50 AM54 °FPartly sunny.3 mph47%30.21 "HgN/A
10:20 AM52 °FPartly sunny.2 mph47%30.21 "HgN/A
9:50 AM48 °FPartly sunny.3 mph54%30.21 "HgN/A
9:20 AM46 °FPartly sunny.2 mph62%30.21 "HgN/A
8:50 AM43 °FPartly sunny.3 mph66%30.21 "HgN/A
8:20 AM43 °FPartly sunny.1 mph71%30.21 "HgN/A
7:50 AM37 °FSunny.2 mph81%30.21 "Hg10 mi
7:20 AM36 °FSunny.1 mph81%30.21 "Hg10 mi
6:50 AM30 °FSunny.1 mph93%30.21 "Hg10 mi
6:20 AM28 °FSunny.1 mph93%30.21 "Hg10 mi
5:50 AM28 °FSunny.1 mph86%30.21 "Hg10 mi
5:20 AM28 °FClear.1 mph86%30.21 "Hg10 mi
4:50 AM28 °FClear.1 mph93%30.21 "Hg10 mi
4:20 AM28 °FClear.2 mph86%30.21 "Hg10 mi
3:50 AM30 °FPassing clouds.3 mph86%30.21 "HgN/A
3:20 AM30 °FClear.2 mph86%30.21 "Hg10 mi
2:50 AM30 °FClear.1 mph86%30.21 "Hg10 mi
2:20 AM32 °FClear.1 mph87%30.21 "Hg10 mi
1:50 AM32 °FClear.1 mph87%30.21 "Hg10 mi
1:20 AM32 °FClear.2 mph87%30.21 "Hg10 mi
Weather by CustomWeather, © 2015

See weather overviewHow to use our weather pages